Regional Weather Roundup
Issued by NWS Charleston, SC

Current Version | Previous Version | Text Only | Print | Product List | Glossary On
Versions: 1 2 3 4 5 6 7 8 9 10 11 12 13 14 15 16 17 18 19 20 21 22 23 24 25 26 27 28 29 30 31 32 33 34 35 36 37 38 39 40 41 42 43 44 45 46 47 48 49 50
005 ASUS42 KCHS 300113 RWRCHS REGIONAL WEATHER ROUNDUP NATIONAL WEATHER SERVICE CHARLESTON SC 900 PM EDT SUN MAY 29 2016 NOTE: "FAIR" INDICATES FEW OR NO CLOUDS BELOW 12,000 FEET WITH NO SIGNIFICANT WEATHER AND/OR OBSTRUCTIONS TO VISIBILITY. NOT ALL STATIONS ARE QUALITY CONTROLLED. USE DATA WITH CAUTION... ESPECIALLY DEWPOINT OBSERVATIONS. SCZ027-030-031-034>040-042>050-300200- ...SOUTHEAST SOUTH CAROLINA... CITY SKY/WX TMP DP RH WIND PRES REMARKS N CHARLESTON CLOUDY 73 66 78 NE5 29.90S WATERFRONT PRK N/A 72 68 87 NE6 29.87S MOUNT PLEASANT CLOUDY 72 70 94 CALM 29.91S JOHNS ISLAND CLOUDY 72 68 88 N6 29.90R PINOPOLIS N/A 73 70 88 SE6 29.84R MONCKS CORNER DRIZZLE 68 64 88 SE3 29.92R SUMMERVILLE NOT AVBL BEAUFORT MCAS CLOUDY 73 69 87 NW9 29.92S BEAUFORT ARPT CLOUDY 70 68 94 W9 29.92R HILTON HEAD IS CLOUDY 68 68 100 W12G21 29.94S WALTERBORO CLOUDY 72 72 100 NW6 29.93R ALLENDALE CLOUDY 68 68 100 CALM 29.95S ...SOUTHERN MIDLANDS AND PEE DEE... CITY SKY/WX TMP DP RH WIND PRES REMARKS GEORGETOWN CLOUDY 70 68 94 SE3 29.94S KINGSTREE DRIZZLE 70 68 94 N5 29.94R ORANGEBURG MOCLDY 72 69 90 N9G18 29.95R BARNWELL MOCLDY 72 72 100 CALM 29.98R AIKEN MOCLDY 72 63 73 N6 30.02R MANNING DRIZZLE 70 70 100 NE3 29.93S COLUMBIA CLOUDY 75 65 70 N7 29.96S SUMTER CLOUDY 71 68 92 N10 29.93S FLORENCE LGT RAIN 76 68 76 E9 29.96R MYRTLE BEACH NOT AVBL N MYRTLE BEACH CLOUDY 76 69 79 SE7 29.95F $$ GAZ063-065-086>088-099>101-113>116-118-119-134>141-150-300200- ...SOUTHEAST GEORGIA... CITY SKY/WX TMP DP RH WIND PRES REMARKS SAVANNAH ARPT CLOUDY 70 63 78 W13 29.97R HUNTER AAF CLEAR 69 67 95 W6 29.94S FORT STEWART CLOUDY 75 61 62 W6 29.96S STATESBORO CLOUDY 70 67 92 NW5 29.99R SYLVANIA LGT RAIN 70 67 92 W6 29.99R CLAXTON FAIR 71 66 83 SW3 29.99S ...CSRA...CENTRAL AND FAR SOUTHEAST GEORGIA... CITY SKY/WX TMP DP RH WIND PRES REMARKS THOMSON MOCLDY 71 67 87 NW3 30.07R AUGUSTA-BUSH CLOUDY 73 64 73 NW9 29.98R AUGUSTA-DANIEL PTCLDY 73 63 70 NW7 30.00R SWAINSBORO CLOUDY 73 63 68 NW5 30.01S VIDALIA PTCLDY 75 59 57 CALM 30.01S EASTMAN MOCLDY 76 65 69 CALM 30.04S HAZLEHURST FAIR 79 62 56 CALM 30.00S ALMA CLEAR 74 62 66 CALM 30.00S WAYCROSS CLEAR 76 63 63 CALM 30.00R JESUP FAIR 73 55 53 N6 30.00R BAXLEY FAIR 77 61 57 CALM 30.00S BRUNSWICK CLEAR 81 61 50 CALM 29.99R SAINT SIMONS CLEAR 79 58 48 NW6 29.98R $$ SCZ027-028-034-036>038-045-046-048>050-GAZ119-141-300200- ...LAKE AND SUPPLEMENTAL COASTAL OBSERVATIONS... STATION/POSITION TIME TEMP WIND PRES WAVE SWELL AIR SEA DIR/SP/G HT/PER HT/PER/DIR (UTC) (F) (DEG/KT/KT) (MB) (FT/S) (FT/S/D) WINYAH BAY 2345 72 170/ 9 1013.0 LAKE MURRAY 0000 75 30/ 1/ 6 1014.6R ACE BASIN NERRS NOT AVBL FORT PULASKI 0000 69 75 1014.5F SAPELO ISLAND 0000 80 310/ 11 1015.0S $$ ANZ835-935-AMZ111-154-330-350-352-354-370-450-454-472-300200- ...C-MAN AND BUOY OBSERVATIONS... STATION/POSITION TIME TEMP WIND PRES WAVE SWELL AIR SEA DIR/SP/G HT/PER HT/PER/DIR (UTC) (F) (DEG/KT/KT) (MB) (FT/S) (FT/S/D) BUOY 41004 0050 73 78 190/ 14/ 16 1012.9R 6/ 6 3/ 8 BUOY 41008 0050 77 76 300/ 16/ 17 1014.7 3/ 4 2/ 90/ 8 FOLLY BEACH CMAN 0000 71 150/ 4/ 5 1012.3R CAPERS NEARSHORE 0008 72 76 180/ 10/ 14 1012.6R FRIPP NEARSHORE 0008 71 75 280/ 21/ 25 1012.2R STATION/POSITION TIME TEMP WIND PRES WAVE SWELL AIR SEA DIR/SP/G HT/PER HT/PER/DIR (UTC) (F) (DEG/KT/KT) (MB) (FT/S) (FT/S/D) 5E ST. MARYS GA 0001 79 N/A 2/ 8 FRYING PAN BUOY 0000 78 79 170/ 14/ 17 1014.6S BUOY 41025 0050 78 82 170/ 21/ 25 1017.1S 5/ 8 2/150/ 9 CAPE LOOKOUT NC 0000 76 140/ 7/ 8 1016.5R BUOY 41002 0050 76 76 130/ 14/ 17 1018.2R 5/ 8 3/110/ 8 BUOY 41010 0020 78 79 70/ 4/ 6 1016.7F ST AUGUSTINE FL 0100 79 81 170/ 13/ 14 1017.2R $$

USA.gov is the U.S. government's official web portal to all federal, state and local government web resources and services.